Regional Weather Roundup
Issued by NWS

Home | Current Version | Previous Version | Text Only | Print | Product List | Glossary On
Versions: 1 2 3 4 5 6 7 8 9 10 11 12 13 14 15 16 17 18 19 20 21 22 23 24 25 26 27 28
000
ASUS45 KBOI 311510
RWRID
WEATHER ROUNDUP FOR IDAHO
NATIONAL WEATHER SERVICE BOISE ID
900 AM MDT FRI OCT 31 2014

NOTE: "FAIR" INDICATES FEW OR NO CLOUDS BELOW 12000 FEET
WITH NO SIGNIFICANT WEATHER AND/OR OBSTRUCTIONS TO VISIBILITY

IDZ012-014-311600-
SOUTHWEST IDAHO


CITY           SKY/WX    TMP DP  RH WIND       PRES   REMARKS
BOISE          CLOUDY    50  36  58 SE3       29.80R
CALDWELL       CLOUDY    45  34  65 CALM      29.83R
MOUNTAIN HOME  CLOUDY    54  30  40 SE17      29.83R
$$

IDZ016-017-311600-
SOUTHCENTRAL IDAHO


CITY           SKY/WX    TMP DP  RH WIND       PRES   REMARKS
BURLEY         CLOUDY    42  32  67 SE5       29.90S
JEROME         MOCLDY    53  28  38 E9        29.89R
TWIN FALLS     MOCLDY    64  25  22 S18       29.85F
$$

IDZ019>023-311600-
SOUTHEAST IDAHO


CITY           SKY/WX    TMP DP  RH WIND       PRES   REMARKS
IDAHO FALLS    PTCLDY    39  32  76 N5        29.99R
POCATELLO      CLEAR     45  31  58 VRB7      29.95S
REXBURG        PTCLDY    38  29  70 E6        30.00S WCI  33
$$

IDZ006-010-011-018-031-032-311600-
CENTRAL IDAHO MOUNTAINS


CITY           SKY/WX    TMP DP  RH WIND       PRES   REMARKS
MCCALL         PTCLDY    35  31  85 CALM      29.85R
HAILEY         PTCLDY    39  28  65 NW9       29.99R WCI  33
STANLEY          N/A     28  24  85 CALM      29.97R
SALMON         CLOUDY    34  30  86 CALM      29.91F
CHALLIS        PTCLDY    31  29  92 CALM      29.94F
$$

IDZ002-004-006-007-026-311600-
NORTHERN IDAHO


CITY           SKY/WX    TMP DP  RH WIND       PRES   REMARKS
LEWISTON       MOCLDY    48  46  93 SE3       29.75R
LOWELL           N/A     46  44  93 CALM      29.79R
COEUR D`ALENE  CLOUDY    45  43  93 E5        29.74S
MULLAN PASS    MOCLDY    42  33  70 S9        29.81S
$$



USA.gov is the U.S. government's official web portal to all federal, state and local government web resources and services.